This is the latest recevied weather packets stored in our database for station/object SA3PJN-WX. If no packets are shown the sender has not sent any weather packets the latest 10 day(s).
| Time | Temp. | Humidity | Pressure | Rain* | Wind** | Luminosity | Snow |
|---|---|---|---|---|---|---|---|
| 1778233156 | 13.33° C | 33% | 977.4 hPa | - | - | - | - |
| 1778232826 | 14.44° C | 33% | 977.4 hPa | - | - | - | - |
| 1778232526 | 13.33° C | 35% | 977.3 hPa | - | - | - | - |
| 1778232226 | 13.89° C | 37% | 977.5 hPa | - | - | - | - |
| 1778231926 | 13.33° C | 39% | 977.5 hPa | - | - | - | - |
| 1778231626 | 12.78° C | 36% | 977.5 hPa | - | - | - | - |
| 1778231326 | 12.78° C | 37% | 977.5 hPa | - | - | - | - |
| 1778231026 | 13.33° C | 37% | 977.5 hPa | - | - | - | - |
| 1778230726 | 12.22° C | 38% | 977.5 hPa | - | - | - | - |
| 1778230426 | 12.78° C | 40% | 977.5 hPa | - | - | - | - |
| 1778230126 | 12.78° C | 37% | 977.5 hPa | - | - | - | - |
| 1778229825 | 12.78° C | 42% | 977.9 hPa | - | - | - | - |
| 1778229495 | 12.22° C | 43% | 977.8 hPa | - | - | - | - |
| 1778229196 | 11.11° C | 45% | 977.4 hPa | - | - | - | - |
| 1778228866 | 11.11° C | 47% | 977.5 hPa | - | - | - | - |
| 1778228566 | 10.56° C | 47% | 977.8 hPa | - | - | - | - |
| 1778228265 | 10° C | 49% | 977.8 hPa | - | - | - | - |
| 1778227965 | 10.56° C | 50% | 977.8 hPa | - | - | - | - |
| 1778227665 | 10° C | 48% | 977.5 hPa | - | - | - | - |
| 1778227366 | 10° C | 50% | 977.8 hPa | - | - | - | - |
| 1778227065 | 9.44° C | 50% | 977.6 hPa | - | - | - | - |
| 1778226736 | 9.44° C | 53% | 978.1 hPa | - | - | - | - |
| 1778226435 | 8.89° C | 56% | 978 hPa | - | - | - | - |
| 1778226135 | 7.78° C | 57% | 978.1 hPa | - | - | - | - |
| 1778225805 | 7.22° C | 57% | 978 hPa | - | - | - | - |
* Rain since midnight (hover to see other rain measurements)
** Current wind speed in m/s (hover to see current wind gust speed)